{"data":{"norad_id":65691,"epoch":"2026-09-20T23:28:08.012064Z","epoch_age_seconds":67365,"freshness":"FRESH","line1":"1 65691U 25212R   26263.97787051  .00014266  00000+0  43254-3 0  9991","line2":"2 65691  53.1567 147.1259 0000765  48.2630 311.8438 15.34400114 57302","mean_motion":15.34400114,"eccentricity":7.65e-5,"inclination_deg":53.1567,"raan_deg":147.1259,"arg_perigee_deg":48.263,"mean_anomaly_deg":311.8438,"bstar":0.00043254,"rev_number":5730,"period_min":93.847751108809,"perigee_km":462.17957712265,"apogee_km":463.22622562756,"semimajor_km":6840.8399013751,"source":"CELESTRAK","updated_at":"2026-09-21T09:00:35.688120Z"}}